When you browse on this site, cookies collect data to enhance your experience and personalize the content and advertising you see.
Visit our Privacy Policy to learn more. By continuing to use the site, you agree to this use of cookies and data.
  • en Suisse
  • Liste des pays
  • À 7 jours
  • Température de l'eau
  • Carte météo
  • Widgets météo
  • user-avatar
    Se connecter

    Météo par heure à Krasnokole

    Ce jour, 25 Août, Dimanche

    Heure Température Précipitation Vent Pression Humidité
    00:00 +15°C° 0 mm 2 m/s 748 mmHg 91%
    01:00 +14°C° 0 mm 2 m/s 748 mmHg 93%
    02:00 +14°C° 0 mm 2 m/s 748 mmHg 95%
    03:00 +14°C° 0 mm 2 m/s 748 mmHg 95%
    04:00 +13°C° 0 mm 2 m/s 748 mmHg 95%
    05:00 +13°C° 0 mm 2 m/s 748 mmHg 96%
    06:00 +14°C° 0 mm 2 m/s 749 mmHg 90%
    07:00 +16°C° 0 mm 3 m/s 749 mmHg 84%
    08:00 +17°C° 0 mm 3 m/s 749 mmHg 77%
    09:00 +18°C° 0 mm 3 m/s 749 mmHg 71%
    10:00 +20°C° 0 mm 3 m/s 750 mmHg 64%
    11:00 +21°C° 0 mm 3 m/s 750 mmHg 57%
    12:00 +21°C° 0 mm 3 m/s 750 mmHg 57%
    13:00 +21°C° 0 mm 3 m/s 750 mmHg 56%
    14:00 +22°C° 0 mm 3 m/s 750 mmHg 56%
    15:00 +21°C° 0 mm 3 m/s 750 mmHg 60%
    16:00 +21°C° 0 mm 2 m/s 750 mmHg 64%
    17:00 +20°C° 0 mm 2 m/s 750 mmHg 68%
    18:00 +19°C° 0 mm 2 m/s 750 mmHg 73%
    19:00 +18°C° 0 mm 1 m/s 750 mmHg 77%
    20:00 +15°C° 0 mm 1 m/s 751 mmHg 82%
    21:00 +14°C° 0 mm 1 m/s 751 mmHg 84%
    22:00 +14°C° 0 mm 1 m/s 751 mmHg 85%
    23:00 +13°C° 0 mm 1 m/s 751 mmHg 87%

    Demain, 26 Août, Lundi

    Heure Température Précipitation Vent Pression Humidité
    00:00 +13°C° 0 mm 1 m/s 751 mmHg 88%
    01:00 +13°C° 0 mm 1 m/s 751 mmHg 89%
    02:00 +12°C° 0 mm 1 m/s 752 mmHg 90%
    03:00 +12°C° 0 mm 1 m/s 752 mmHg 91%
    04:00 +12°C° 0 mm 1 m/s 751 mmHg 91%
    05:00 +12°C° 0 mm 1 m/s 751 mmHg 92%
    06:00 +13°C° 0 mm 0 m/s 752 mmHg 86%
    07:00 +15°C° 0 mm 0 m/s 752 mmHg 80%
    08:00 +17°C° 0 mm 0 m/s 752 mmHg 74%
    09:00 +18°C° 0 mm 0 m/s 752 mmHg 69%
    10:00 +19°C° 0 mm 0 m/s 751 mmHg 64%
    11:00 +23°C° 0 mm 1 m/s 751 mmHg 58%
    12:00 +23°C° 0 mm 1 m/s 751 mmHg 57%
    13:00 +23°C° 0 mm 1 m/s 751 mmHg 56%
    14:00 +23°C° 0 mm 2 m/s 750 mmHg 54%
    15:00 +23°C° 0 mm 2 m/s 750 mmHg 58%
    16:00 +21°C° 0 mm 2 m/s 749 mmHg 62%
    17:00 +21°C° 0 mm 2 m/s 749 mmHg 66%
    18:00 +19°C° 0 mm 2 m/s 749 mmHg 69%
    19:00 +17°C° 0 mm 2 m/s 749 mmHg 73%
    20:00 +16°C° 0 mm 2 m/s 748 mmHg 77%
    21:00 +15°C° 0 mm 2 m/s 748 mmHg 79%
    22:00 +15°C° 0 mm 2 m/s 748 mmHg 81%
    23:00 +14°C° 0 mm 2 m/s 748 mmHg 82%

    Après-demain, 27 Août, Mardi

    Heure Température Précipitation Vent Pression Humidité
    00:00 +14°C° 0 mm 2 m/s 748 mmHg 84%
    01:00 +14°C° 0 mm 2 m/s 747 mmHg 86%
    02:00 +13°C° 0 mm 2 m/s 747 mmHg 88%
    03:00 +13°C° 0 mm 2 m/s 747 mmHg 88%
    04:00 +12°C° 0 mm 3 m/s 746 mmHg 88%
    05:00 +12°C° 0 mm 3 m/s 746 mmHg 89%
    06:00 +14°C° 0 mm 3 m/s 746 mmHg 85%
    07:00 +15°C° 0 mm 4 m/s 745 mmHg 81%
    08:00 +18°C° 0 mm 4 m/s 745 mmHg 77%
    09:00 +19°C° 0.2 mm 5 m/s 745 mmHg 74%
    10:00 +21°C° 0.2 mm 5 m/s 745 mmHg 72%
    11:00 +22°C° 0.2 mm 6 m/s 744 mmHg 69%
    12:00 +22°C° 0.2 mm 6 m/s 744 mmHg 69%
    13:00 +21°C° 0.2 mm 6 m/s 744 mmHg 69%
    14:00 +21°C° 0.2 mm 6 m/s 744 mmHg 69%
    15:00 +21°C° 0 mm 5 m/s 744 mmHg 69%
    16:00 +20°C° 0 mm 5 m/s 744 mmHg 69%
    17:00 +20°C° 0 mm 4 m/s 744 mmHg 69%
    18:00 +18°C° 0 mm 4 m/s 744 mmHg 72%
    19:00 +17°C° 0 mm 4 m/s 744 mmHg 74%
    20:00 +14°C° 0 mm 3 m/s 744 mmHg 77%
    21:00 +14°C° 0 mm 3 m/s 745 mmHg 79%
    22:00 +13°C° 0 mm 3 m/s 745 mmHg 80%
    23:00 +13°C° 0 mm 3 m/s 745 mmHg 82%

    28 Août, Mercredi

    Heure Température Précipitation Vent Pression Humidité
    00:00 +12°C° 0 mm 3 m/s 746 mmHg 84%
    01:00 +11°C° 0 mm 3 m/s 746 mmHg 86%
    02:00 +10°C° 0 mm 3 m/s 746 mmHg 89%
    03:00 +9°C° 0 mm 3 m/s 746 mmHg 90%
    04:00 +8°C° 0 mm 3 m/s 747 mmHg 92%
    05:00 +7°C° 0 mm 3 m/s 747 mmHg 93%
    06:00 +8°C° 0 mm 3 m/s 747 mmHg 85%
    07:00 +10°C° 0 mm 3 m/s 747 mmHg 77%
    08:00 +11°C° 0 mm 4 m/s 748 mmHg 69%
    09:00 +12°C° 0 mm 4 m/s 748 mmHg 64%
    10:00 +13°C° 0 mm 4 m/s 748 mmHg 59%
    11:00 +14°C° 0 mm 5 m/s 748 mmHg 54%
    12:00 +14°C° 0 mm 5 m/s 747 mmHg 52%
    13:00 +15°C° 0 mm 5 m/s 747 mmHg 50%
    14:00 +15°C° 0 mm 5 m/s 747 mmHg 48%
    15:00 +15°C° 0 mm 4 m/s 747 mmHg 52%
    16:00 +14°C° 0 mm 4 m/s 747 mmHg 56%
    17:00 +14°C° 0 mm 3 m/s 747 mmHg 60%
    18:00 +12°C° 0 mm 3 m/s 748 mmHg 63%
    19:00 +10°C° 0 mm 3 m/s 748 mmHg 66%
    20:00 +8°C° 0 mm 3 m/s 748 mmHg 69%
    21:00 +8°C° 0 mm 2 m/s 749 mmHg 72%
    22:00 +7°C° 0 mm 2 m/s 749 mmHg 76%
    23:00 +6°C° 0 mm 2 m/s 749 mmHg 79%

    29 Août, Jeudi

    Heure Température Précipitation Vent Pression Humidité
    00:00 +6°C° 0 mm 2 m/s 749 mmHg 82%
    01:00 +5°C° 0 mm 2 m/s 749 mmHg 84%
    02:00 +5°C° 0 mm 2 m/s 749 mmHg 86%
    03:00 +4°C° 0 mm 2 m/s 750 mmHg 88%
    04:00 +4°C° 0 mm 2 m/s 750 mmHg 89%
    05:00 +4°C° 0 mm 2 m/s 750 mmHg 90%
    06:00 +5°C° 0 mm 3 m/s 750 mmHg 83%
    07:00 +8°C° 0 mm 3 m/s 750 mmHg 76%
    08:00 +10°C° 0 mm 4 m/s 750 mmHg 69%
    09:00 +11°C° 0 mm 4 m/s 750 mmHg 65%
    10:00 +12°C° 0 mm 4 m/s 750 mmHg 61%
    11:00 +13°C° 0 mm 4 m/s 750 mmHg 57%
    12:00 +14°C° 0 mm 4 m/s 750 mmHg 56%
    13:00 +15°C° 0 mm 4 m/s 750 mmHg 54%
    14:00 +15°C° 0 mm 4 m/s 749 mmHg 53%
    15:00 +16°C° 0 mm 3 m/s 749 mmHg 56%
    16:00 +14°C° 0 mm 3 m/s 749 mmHg 60%
    17:00 +15°C° 0 mm 2 m/s 749 mmHg 64%
    18:00 +13°C° 0 mm 2 m/s 749 mmHg 68%
    19:00 +10°C° 0 mm 2 m/s 749 mmHg 72%
    20:00 +8°C° 0 mm 2 m/s 749 mmHg 75%
    21:00 +8°C° 0 mm 2 m/s 750 mmHg 77%
    22:00 +7°C° 0 mm 2 m/s 750 mmHg 78%
    23:00 +8°C° 0 mm 1 m/s 750 mmHg 79%

    30 Août, Vendredi

    Heure Température Précipitation Vent Pression Humidité
    00:00 +7°C° 0 mm 1 m/s 750 mmHg 82%
    01:00 +7°C° 0 mm 1 m/s 750 mmHg 84%
    02:00 +6°C° 0 mm 1 m/s 750 mmHg 86%
    03:00 +6°C° 0 mm 1 m/s 750 mmHg 87%
    04:00 +6°C° 0 mm 1 m/s 750 mmHg 87%
    05:00 +5°C° 0 mm 1 m/s 750 mmHg 88%
    06:00 +6°C° 0 mm 2 m/s 750 mmHg 81%
    07:00 +8°C° 0 mm 2 m/s 750 mmHg 73%
    08:00 +10°C° 0 mm 2 m/s 750 mmHg 66%
    09:00 +13°C° 0 mm 2 m/s 750 mmHg 60%
    10:00 +15°C° 0 mm 2 m/s 749 mmHg 54%
    11:00 +16°C° 0 mm 2 m/s 749 mmHg 48%
    12:00 +17°C° 0 mm 2 m/s 749 mmHg 48%
    13:00 +18°C° 0 mm 3 m/s 748 mmHg 48%
    14:00 +18°C° 0 mm 3 m/s 748 mmHg 48%
    15:00 +18°C° 0 mm 3 m/s 748 mmHg 55%
    16:00 +17°C° 0 mm 2 m/s 747 mmHg 62%
    17:00 +17°C° 0 mm 2 m/s 747 mmHg 69%
    18:00 +16°C° 0 mm 2 m/s 747 mmHg 75%
    19:00 +14°C° 0 mm 3 m/s 747 mmHg 81%
    20:00 +12°C° 0 mm 3 m/s 747 mmHg 87%
    21:00 +12°C° 0 mm 3 m/s 747 mmHg 90%
    22:00 +13°C° 0 mm 2 m/s 747 mmHg 92%
    23:00 +13°C° 0 mm 2 m/s 747 mmHg 95%
    Voir plus